Cloud_Cover
18 5 98 31 13 50 13 100 99 100 35 45 100 100 100 100 100 100 100 100 49 82 7 20 100 99 100 96 72 92 100 100 100 100 100 100 95 100 100 100 100 100 100 100
41 53 43 73 61 64 100 100 88 63 85 54 80 93 100 13 29 16 2 5 66 100 100 100 100 77 90 100 100 100 100 100 100 100 100 100 88 87 100 100 100 100 100 100
100 100 100 95 100 100 95 58 79 56 100 81 52 22 100 100 29 3 0 0 1 4 58 100 58 100 58 82 100 66 99 90 100 100 100 100 100 100 100 100 100 100 100 100
62 100 100 100 100 100 91 6 11 7 37 94 98 33 100 100 5 5 3 0 0 6 30 92 24 98 100 98 100 80 79 100 100 100 100 100 100 100 100 100 100 100 100 100
100 100 100 100 100 13 95 95 100 100 80 73 99 14 5 94 5 1 12 94 44 36 9 28 5 5 77 100 100 100 100 100 100 100 100 100 100 100 100 100 100 100 100 100
100 100 100 95 100 100 100 100 57 67 99 42 100 33 5 82 7 8 5 5 5 94 100 99 82 85 100 100 100 100 100 100 100 100 100 100 100 100 100 100 100 100 100 100
100 100 100 100 100 100 100 64 36 26 67 33 42 4 0 5 11 100 84 59 49 100 82 99 96 69 86 100 100 100 100 100 100 100 100 100 100 100 100 100 100 100 100 100
97 78 100 100 100 100 100 100 100 100 90 5 5 22 92 99 99 84 100 80 42 100 100 100 100 100 100 100 88 100 100 100 100 100 100 100 100 100 100 100 100 100 100 100
95 98 100 100 100 99 99 100 100 100 100 100 100 100 100 100 100 100 100 100 90 83 93 100 100 74 90 100 100 100 100 100 100 100 100 100 100 100 100 100 100 100 100 100
100 100 100 100 100 100 100 100 100 100 100 100 100 100 100 100 100 100 100 100 100 100 50 14 99 100 99 100 100 100 100 100 100 100 100 100 100 100 100 100 100 100 100 100
100 100 99 100 100 100 100 100 100 100 100 100 100 100 100 100 100 100 99 100 99 100 100 14 12 100 100 100 100 100 100 100 100 100 100 100 100 100 100 100 100 100 100 100
100 100 100 100 100 100 100 100 100 100 100 100 100 100 100 100 97 100 100 100 98 84 93 84 5 6 100 53 100 100 99 100 100 100 100 100 100 100 100 100 100 100 100 100
100 100 100 100 100 100 100 100 100 100 100 100 100 92 96 100 100 100 100 100 100 100 67 38 7 5 70 9 98 100 79 100 100 100 100 100 100 100 100 100 100 100 100 100
100 100 100 100 100 100 100 100 100 100 100 55 70 74 77 100 100 100 100 100 100 94 93 99 95 22 6 27 86 100 100 100 100 100 100 100 100 100 100 100 100 100 100 100
100 100 100 100 100 100 100 67 46 100 100 100 98 100 100 100 100 100 100 100 100 97 99 78 38 13 5 7 4 87 100 100 100 100 100 100 100 100 100 100 100 100 100 100
100 100 100 99 45 100 99 5 7 5 58 100 100 97 99 100 100 100 100 100 93 5 5 8 99 100 80 5 5 5 100 100 100 100 100 100 100 100 100 100 100 100 100 100
100 100 100 80 72 100 94 4 96 98 100 100 100 93 98 97 98 100 100 95 99 96 29 6 7 16 80 26 5 3 83 86 100 100 100 100 100 100 100 100 100 100 100 100
6 5 26 4 5 85 3 10 62 100 100 100 100 98 47 97 99 100 88 71 100 97 99 60 1 4 5 5 5 12 5 5 100 100 100 100 100 100 100 100 100 100 100 100
4 28 79 100 52 20 1 2 14 66 25 99 100 100 100 100 100 100 95 85 100 68 12 8 5 5 4 0 1 8 15 5 8 100 100 100 100 100 100 100 100 100 100 100
2 99 98 96 100 98 0 8 89 100 84 32 70 66 100 100 98 8 96 100 100 94 12 4 4 5 0 0 0 2 25 10 19 18 100 100 100 100 100 100 100 100 100 100
2 6 78 97 100 13 0 0 2 61 78 46 5 5 62 62 39 5 2 50 87 92 93 94 39 5 0 0 0 0 0 78 83 100 100 100 100 72 99 100 100 100 100 100
2 4 27 23 35 38 2 3 5 2 1 5 0 1 0 1 0 0 0 0 0 0 0 0 2 3 0 0 0 0 29 100 100 100 100 100 100 100 100 100 100 100 100 100
4 1 4 2 2 0 0 0 0 0 0 0 0 0 0 0 0 0 1 5 3 0 4 0 4 0 0 0 0 0 29 100 100 100 100 100 100 100 100 100 100 100 100 100
0 0 4 1 0 0 2 13 9 18 73 35 27 11 4 2 5 5 5 2 5 19 6 12 5 5 12 2 0 12 100 100 100 100 100 100 100 100 100 100 100 100 100 100
1 1 70 100 100 100 100 42 16 19 32 70 80 60 21 5 5 5 5 6 66 35 39 30 76 100 86 20 100 100 100 100 100 100 100 100 100 100 100 100 100 100 100 100
100 100 100 100 100 98 100 100 98 92 100 100 92 90 100 99 75 89 7 100 100 34 5 6 99 100 85 94 100 100 100 100 100 100 100 100 100 82 100 100 100 100 100 100